sat.trackr.live / text

‹ back to catalog

UNKNOWN

NORAD 82741

UNKNOWN UNKNOWN UNKNOWN

§ Identity

Operator
Country
Launch date
Launch site
Launch vehicle
Mass (kg)
RCS (m²)

External: N2YO · Heavens-Above

§ Orbital elements

Epoch: 2026-05-23T12:19:36.005088Z

Period
105.36 min
Inclination
102.8427°
Eccentricity
0.0197004
Mean motion
13.66760009 rev/d
Perigee alt
865.7 km
Apogee alt
1,156.8 km
Semi-major
7,389.4 km
B*
2.7489e-3
RAAN
236.1065°
Arg perigee
262.3938°
Mean anomaly
95.4779°
Rev number
61,917

§ Raw data

UNKNOWN1 82741U          26143.51361117  .00002547  00000+0  27489-2 0  99922 82741 102.8427 236.1065 0197004 262.3938  95.4779 13.66760009619178

JSON: /api/v1/satellites/82741 · /tle

For live sub-satellite position, see the globe view (requires WebGL).

§ Visibility from observer

Set your observer location to see the next 7 days of passes ≥ 10°. The values pass through the URL so the page stays shareable.

No JS? Fill the form by hand. The geolocation button needs JavaScript.